Regional Weather Roundup
Issued by NWS

Home | Current Version | Previous Version | Graphics & Text | Print | Product List | Glossary On
Versions: 1 2 3 4 5 6 7 8 9 10 11 12 13 14 15 16 17 18 19 20 21 22 23 24 25 26 27 28 29 30 31 32 33 34 35 36 37 38 39 40 41 42 43 44 45 46 47 48 49 50
000
ASUS43 KIND 231209
RWRIN

WEATHER ROUNDUP FOR INDIANA
NATIONAL WEATHER SERVICE INDIANAPOLIS IN
800 AM EDT THU OCT 23 2014

NOTE: "FAIR" INDICATES FEW OR NO CLOUDS BELOW 12,000 FEET WITH NO
SIGNIFICANT WEATHER AND/OR OBSTRUCTIONS TO VISIBILITY.

* - STATION DOES NOT REPORT WEATHER SUCH AS PRECIPITATION OR FOG.

+ - STATION NOT QUALITY CONTROLLED BY THE NATIONAL WEATHER SERVICE.
    USE DATA WITH CAUTION...ESPECIALLY DEWPOINT AND RELATIVE
    HUMIDITY OBSERVATIONS.

INZ001>003-010>013-019-020-231300-
NORTHWEST INDIANA

CITY           SKY/WX    TMP DP  RH WIND       PRES   REMARKS
GARY /AIRPORT/ CLEAR     41  39  93 SE7       30.23S
KNOX *+          N/A     32  31  96 SE3       30.24F VSB 1
LA PORTE +     FOG       33  33 100 CALM      30.25S VSB 1/4
6HR MIN TEMP:  32; 6HR MAX TEMP:  36;

MICHIGAN CITY+ CLEAR     37  37 100 S3        30.25R
MONTICELLO +   CLEAR     35  35  99 E3        30.24F FOG
RENSSELAER +   CLEAR     36  36 100 CALM      30.24S FOG
VALPARAISO     FOG       30  30 100 NE3       30.24F VSB 1/4
6HR MIN TEMP:  30; 6HR MAX TEMP:  36;


$$

LMZ046-743>745-231300-
SOUTHERN LAKE MICHIGAN

STATION/POSITION TIME  TEMP WIND        PRES
                       AIR  DIR/SP/G
                 (UTC) (F)  (DEG/KT/KT) (MB)
MICHIGAN CITY    1200   41  140/ 11/ 15   N/A

$$

INZ004-005-014>016-021>024-231300-
NORTH CENTRAL INDIANA

CITY           SKY/WX    TMP DP  RH WIND       PRES   REMARKS
ELKHART        FOG       32  32 100 CALM      30.25F VSB 1/4
GOSHEN         FOG       30  29  96 CALM      30.25S VSB 1/4
6HR MIN TEMP:  28; 6HR MAX TEMP:  33;

LOGANSPORT +   FOG       32  30  93 CALM      30.26F VSB<1/4
PERU/GRISSOM   CLEAR     34  34 100 SE1       30.24F VSB 1/2
6HR MIN TEMP:  34; 6HR MAX TEMP:  38;

ROCHESTER +    FOG       32  32 100 CALM      30.26S VSB 1/4
SOUTH BEND     CLEAR     35  33  92 SE5       30.25F FOG     WCI  31
6HR MIN TEMP:  30; 6HR MAX TEMP:  39;

WARSAW +       FOG       30  30 100 CALM      30.25F VSB<1/4

$$

INZ006>009-017-018-025>027-231300-
NORTHEAST INDIANA

CITY           SKY/WX    TMP DP  RH WIND       PRES   REMARKS
ANGOLA *+      CLOUDY    28   9  43 CALM      30.24F VSB 1/4
AUBURN +       FOG       30  28  93 CALM      30.25F VSB 1/4
FORT WAYNE     FOG       30  29  96 CALM      30.26S VSB 1/4
6HR MIN TEMP:  30; 6HR MAX TEMP:  35;

HUNTINGTON +   FOG       31  31 100 CALM      30.25F VSB 1/4
6HR MIN TEMP:  31; 6HR MAX TEMP:  36;


$$

INZ028-029-035-036-043>045-051>053-231300-
WEST CENTRAL INDIANA

CITY           SKY/WX    TMP DP  RH WIND       PRES   REMARKS
GREENCASTLE +  FOG       34  34 100 CALM      30.26S VSB 1/4
LAFAYETTE      CLEAR     34  34 100 E3        30.25S FOG
6HR MIN TEMP:  34; 6HR MAX TEMP:  39;

TERRE HAUTE    CLEAR     36  34  92 CALM      30.25S FOG
6HR MIN TEMP:  35; 6HR MAX TEMP:  38;


$$

INZ030>032-037>040-046>048-054>057-064-065-231300-
CENTRAL INDIANA

CITY           SKY/WX    TMP DP  RH WIND       PRES   REMARKS
CP ATTERBURY + FOG       32  30  93 CALM      30.27F VSB<1/4
COLUMBUS       FOG       32  32 100 CALM      30.26F VSB 1/4
FRANKFORT +      N/A    N/A N/A N/A SE3       30.26S FOG
INDIANAPOLIS   PTCLDY    37  35  92 SE5       30.24F
6HR MIN TEMP:  37; 6HR MAX TEMP:  43;

-EAGLE CREEK   PTCLDY    36  34  92 CALM      30.25S
6HR MIN TEMP:  35; 6HR MAX TEMP:  40;

KOKOMO *+        N/A     30  28  93 SE3       30.26F VSB 1/4
MARION +       FOG       30  30 100 CALM      30.26S VSB<1/4
MT COMFORT *+  CLOUDY    30 N/A N/A CALM      30.25F VSB 1/2
SHELBYVILLE    FOG       32  30  92 E3        30.25F VSB 1/4
6HR MIN TEMP:  32; 6HR MAX TEMP:  37;

ZIONSVILLE +   FOG       32  29  91 CALM      30.26S VSB<1/4
6HR MIN TEMP:  32; 6HR MAX TEMP:  36;


$$

INZ033-034-041-042-049-050-058-059-231300-
EAST CENTRAL INDIANA

CITY           SKY/WX    TMP DP  RH WIND       PRES   REMARKS
MUNCIE         CLEAR     31  30  96 CALM      30.25F FOG
6HR MIN TEMP:  31; 6HR MAX TEMP:  36;


$$

INZ060-061-067>069-081>083-085>088-231300-
SOUTHWEST INDIANA

CITY           SKY/WX    TMP DP  RH WIND       PRES   REMARKS
EVANSVILLE     CLEAR     38  36  92 NE3       30.25S FOG
6HR MIN TEMP:  38; 6HR MAX TEMP:  44;

HUNTINGBURG *+ CLEAR     36  34  93 E3        30.26S
6HR MIN TEMP:  36; 6HR MAX TEMP:  41;

WASHINGTON +     N/A     33  33 100 CALM      30.25F FOG
6HR MIN TEMP:  33; 6HR MAX TEMP:  40;


$$

INZ062-063-066-070>080-084-089>092-231300-
SOUTH CENTRAL AND SOUTHEAST INDIANA

CITY           SKY/WX    TMP DP  RH WIND       PRES   REMARKS
BLOOMINGTON    CLEAR     34  33  96 S3        30.26R FOG
6HR MIN TEMP:  33; 6HR MAX TEMP:  38;

SEYMOUR +      FOG       34  32  93 CALM      30.26  VSB 1/2

$$




USA.gov is the U.S. government's official web portal to all federal, state and local government web resources and services.